GW2145 Weather Reports


time (UTC)temp
C
wind
direction
speed
KPH
gust
KPH
rain 1hr
cm
rain 24hr
cm
rain mn
cm
humidity
%
barometer
mb
20260508115427 0 156 0.0 0.0 0.00 0.28 0.03 96 927.0
20260508114432 0 155 0.0 0.0 0.00 0.28 0.03 96 927.1
20260508113438 0 155 0.0 0.0 0.00 0.28 0.03 96 927.1
20260508112935 0 155 0.0 0.0 0.00 0.28 0.03 96 927.2
20260508111938 0 155 0.0 0.0 0.00 0.28 0.03 96 927.2
20260508110941 0 154 0.0 0.0 0.00 0.28 0.03 96 927.2
20260508110428 0 154 0.0 0.0 0.00 0.28 0.03 96 926.9
20260508105428 0 154 0.0 0.0 0.00 0.28 0.03 95 926.9
20260508104436 0 155 0.0 1.6 0.00 0.28 0.03 95 926.7
20260508103443 0 112 0.0 3.2 0.00 0.28 0.03 95 927.0
20260508102442 0 30 1.6 4.8 0.00 0.28 0.03 95 927.4
20260508101446 0 55 1.6 11.3 0.00 0.28 0.03 95 927.4
20260508100430 0 325 6.4 12.9 0.00 0.28 0.03 94 927.5
20260508095434 0 82 0.0 3.2 0.00 0.28 0.03 94 926.6
20260508094440 0 83 0.0 1.6 0.00 0.28 0.03 94 925.8
20260508093442 0 308 0.0 0.0 0.00 0.28 0.03 93 925.7
20260508092940 0 308 0.0 0.0 0.00 0.28 0.03 93 925.6
20260508091428 0 308 0.0 0.0 0.00 0.28 0.03 93 925.7
20260508090514 1 308 0.0 0.0 0.00 0.28 0.03 92 925.8
20260508085430 1 307 0.0 3.2 0.00 0.28 0.03 92 925.9
20260508084436 0 50 3.2 9.7 0.00 0.28 0.03 92 925.9
20260508083437 0 153 0.0 6.4 0.00 0.28 0.03 94 925.9
20260508082936 0 105 3.2 6.4 0.00 0.28 0.03 93 925.8
20260508081938 1 117 3.2 8.0 0.00 0.28 0.03 93 926.1
20260508080943 1 105 3.2 4.8 0.00 0.28 0.03 94 926.1
20260508075926 1 82 0.0 3.2 0.00 0.28 0.03 93 926.1
20260508074435 1 296 0.0 6.4 0.00 0.28 0.03 92 925.9
20260508073436 1 283 0.0 3.2 0.00 0.28 0.03 93 925.8
20260508072936 1 269 0.0 3.2 0.00 0.28 0.03 92 925.8
20260508071942 1 257 1.6 4.8 0.00 0.28 0.03 93 925.8
20260508070945 1 276 3.2 6.4 0.00 0.28 0.03 93 925.9
20260508070425 1 269 1.6 4.8 0.00 0.28 0.03 93 925.8
20260508065430 1 278 1.6 6.4 0.03 0.28 0.03 93 925.8
20260508064430 1 291 3.2 8.0 0.08 0.28 0.03 92 925.8
20260508063433 1 289 1.6 8.0 0.10 0.28 0.03 92 925.9
20260508062429 1 297 6.4 12.9 0.13 0.28 0.03 91 926.1
20260508061432 1 304 6.4 20.9 0.13 0.28 0.03 92 926.3
20260508060434 1 304 11.3 20.9 0.13 0.28 0.03 93 927.0
20260508054948 1 304 6.4 17.7 0.10 0.23 0.23 92 927.2
20260508054445 1 306 6.4 17.7 0.08 0.20 0.20 91 927.1
20260508053927 2 273 8.0 12.9 0.08 0.20 0.20 91 927.1
20260508052930 2 287 6.4 11.3 0.03 0.15 0.15 91 927.2
20260508051933 2 216 0.0 6.4 0.03 0.15 0.15 90 927.0
20260508050936 2 287 3.2 11.3 0.03 0.15 0.15 90 927.3
20260508045942 2 285 1.6 4.8 0.03 0.15 0.15 91 927.4
20260508045439 2 279 0.0 6.4 0.00 0.13 0.13 90 927.3
20260508044440 2 271 1.6 4.8 0.00 0.13 0.13 90 927.4
20260508043441 2 276 1.6 9.7 0.00 0.13 0.13 89 927.3
20260508042924 2 276 3.2 9.7 0.00 0.13 0.13 91 927.2
20260508041933 1 233 3.2 6.4 0.00 0.13 0.13 93 927.2
20260508040932 2 218 3.2 8.0 0.00 0.13 0.13 93 927.1
20260508035936 2 143 0.0 1.6 0.00 0.13 0.13 92 927.3
20260508034942 2 212 1.6 4.8 0.00 0.13 0.13 93 927.2
20260508034442 2 139 0.0 4.8 0.00 0.13 0.13 92 927.0
20260508033435 2 150 0.0 0.0 0.00 0.13 0.13 92 927.1
20260508032440 2 150 0.0 1.6 0.00 0.13 0.13 92 927.2
20260508030932 2 277 0.0 1.6 0.00 0.13 0.13 92 926.8
20260508025934 2 278 0.0 3.2 0.00 0.13 0.13 92 926.7
20260508024941 2 278 0.0 1.6 0.00 0.13 0.13 91 926.3
20260508023947 2 268 0.0 6.4 0.00 0.13 0.13 91 926.1
20260508022941 2 234 0.0 6.4 0.00 0.13 0.13 90 926.2
20260508021941 2 233 1.6 6.4 0.00 0.13 0.13 89 926.0
20260508020944 2 237 0.0 3.2 0.00 0.13 0.13 89 926.1
20260508020424 2 83 0.0 3.2 0.00 0.13 0.13 89 926.1
20260508015430 2 288 0.0 6.4 0.00 0.13 0.13 88 926.4
20260508014431 2 290 8.0 14.5 0.00 0.13 0.13 88 926.1
20260508013432 3 278 4.8 12.9 0.03 0.13 0.13 88 925.6
20260508012932 3 288 8.0 25.7 0.03 0.13 0.13 87 925.5
20260508012431 3 314 11.3 27.4 0.03 0.13 0.13 86 925.5
20260508011434 3 297 11.3 20.9 0.03 0.13 0.13 88 925.4
20260508010442 3 293 8.0 24.1 0.03 0.13 0.13 89 925.5
20260508005443 3 293 11.3 24.1 0.05 0.13 0.13 89 925.6
20260508004428 3 291 12.9 22.5 0.08 0.13 0.13 89 925.5
20260508003434 3 285 8.0 17.7 0.05 0.10 0.10 90 925.6
20260508002934 3 290 8.0 17.7 0.05 0.10 0.10 89 925.3
20260508002433 3 264 6.4 17.7 0.05 0.10 0.10 89 925.2
20260508001438 4 259 6.4 20.9 0.05 0.10 0.10 90 925.1
20260508000436 3 279 12.9 37.0 0.05 0.10 0.10 89 925.1
20260507235439 4 295 25.7 41.8 0.03 0.08 0.05 79 925.5
20260507234442 6 283 6.4 12.9 0.00 0.05 0.05 75 925.1
20260507233428 7 288 6.4 12.9 0.00 0.05 0.05 75 925.0
20260507232928 7 255 6.4 12.9 0.00 0.05 0.05 75 925.0
20260507231932 7 302 4.8 19.3 0.00 0.05 0.05 77 925.1
20260507230936 6 278 6.4 17.7 0.03 0.05 0.05 77 925.2
20260507225946 6 234 4.8 16.1 0.03 0.05 0.05 81 925.6
20260507225429 5 278 8.0 17.7 0.03 0.05 0.05 81 925.9
20260507224430 5 288 9.7 17.7 0.03 0.05 0.05 78 925.9
20260507222952 5 290 8.0 27.4 0.03 0.05 0.05 81 926.0
20260507221935 4 284 6.4 32.2 0.03 0.05 0.05 86 926.3
20260507220938 3 298 22.5 33.8 0.00 0.03 0.03 83 926.3
20260507215925 3 283 20.9 33.8 0.00 0.03 0.03 82 926.2
20260507214930 5 295 17.7 43.5 0.03 0.05 0.03 78 926.3
20260507213931 6 271 20.9 40.2 0.03 0.05 0.03 74 926.2
20260507212942 7 304 17.7 35.4 0.03 0.05 0.03 77 926.4
20260507212424 6 274 9.7 29.0 0.03 0.05 0.03 78 926.6
20260507211432 5 288 17.7 30.6 0.03 0.05 0.03 73 926.7
20260507210428 3 310 8.0 19.3 0.03 0.05 0.03 81 927.2
20260507205436 3 323 16.1 35.4 0.03 0.20 0.03 77 927.1
20260507204437 5 313 25.7 41.8 0.00 0.18 0.00 68 926.8
20260507203441 6 276 19.3 35.4 0.00 0.18 0.00 61 926.7
20260507202939 6 300 16.1 30.6 0.00 0.18 0.00 61 926.7
20260507201941 6 309 6.4 17.7 0.00 0.18 0.00 60 927.0
20260507200946 7 321 14.5 24.1 0.00 0.18 0.00 56 927.2
20260507200424 7 316 14.5 24.1 0.00 0.18 0.00 55 927.2
20260507195433 7 274 16.1 33.8 0.00 0.53 0.00 55 927.3
20260507194434 7 293 14.5 24.1 0.00 0.53 0.00 62 927.3
20260507193437 7 293 20.9 33.8 0.00 0.53 0.00 55 927.4
20260507192436 8 283 17.7 33.8 0.00 0.53 0.00 55 927.8
20260507191440 7 295 12.9 30.6 0.00 0.53 0.00 57 927.8
20260507190425 7 288 22.5 33.8 0.00 0.53 0.00 55 927.7
20260507185432 6 290 12.9 29.0 0.00 0.69 0.00 58 927.9
20260507184435 6 302 12.9 22.5 0.00 0.69 0.00 60 927.9
20260507183440 6 289 16.1 25.7 0.00 0.69 0.00 60 928.2
20260507182437 6 307 11.3 32.2 0.00 0.69 0.00 60 928.3
20260507181440 5 290 12.9 24.1 0.00 0.69 0.00 60 928.4
20260507180443 5 317 12.9 29.0 0.00 0.69 0.00 62 928.5
20260507175922 5 297 17.7 29.0 0.00 0.69 0.00 61 928.6
20260507174926 5 305 19.3 32.2 0.00 0.69 0.00 62 928.4
20260507173933 5 286 11.3 20.9 0.00 0.69 0.00 62 928.8
20260507173428 5 300 9.7 16.1 0.00 0.69 0.00 64 928.8
20260507172429 5 307 4.8 19.3 0.00 0.69 0.00 64 929.1
20260507171431 4 304 4.8 24.1 0.00 0.69 0.00 63 929.3
20260507170441 4 309 12.9 32.2 0.00 0.69 0.00 63 929.1
20260507165430 5 281 12.9 29.0 0.00 0.69 0.00 64 929.2
20260507164434 4 314 19.3 40.2 0.00 0.69 0.00 64 928.9
20260507163441 4 291 19.3 40.2 0.00 0.69 0.00 66 928.8
20260507162933 3 293 19.3 40.2 0.00 0.69 0.00 64 928.9
20260507161941 4 278 17.7 38.6 0.00 0.69 0.00 65 929.2
20260507160941 3 295 19.3 35.4 0.00 0.69 0.00 65 929.5
20260507155949 3 293 16.1 27.4 0.00 0.69 0.00 66 929.8
20260507155425 3 284 12.9 32.2 0.00 0.69 0.00 68 930.0
20260507154430 3 285 14.5 29.0 0.00 0.69 0.00 68 930.1
20260507153429 2 293 11.3 27.4 0.00 0.69 0.00 68 930.4
20260507152442 2 270 8.0 17.7 0.00 0.69 0.00 70 930.7
20260507151926 1 270 8.0 17.7 0.00 0.69 0.00 69 930.8
20260507150931 1 283 8.0 17.7 0.00 0.69 0.00 70 931.3
20260507145935 1 259 8.0 16.1 0.00 0.69 0.00 71 931.4
20260507144941 0 276 4.8 17.7 0.00 0.69 0.00 72 931.8
20260507143941 0 274 3.2 16.1 0.00 0.69 0.00 74 931.9
20260507143422 0 216 4.8 17.7 0.00 0.69 0.00 73 931.9
20260507142430 0 263 3.2 19.3 0.00 0.69 0.00 74 931.8
20260507141435 -1 241 3.2 20.9 0.00 0.69 0.00 74 931.7
20260507140433 -1 240 8.0 14.5 0.00 0.69 0.00 74 931.9
20260507135439 -1 262 3.2 16.1 0.00 0.69 0.00 76 931.8
20260507134441 -2 273 3.2 12.9 0.00 0.69 0.00 76 931.9
20260507133927 -2 271 3.2 12.9 0.00 0.69 0.00 76 931.7
20260507132929 -2 285 3.2 16.1 0.00 0.69 0.00 76 931.8
20260507131928 -2 262 4.8 11.3 0.00 0.69 0.00 76 931.7
20260507130932 -2 198 6.4 12.9 0.00 0.69 0.00 76 931.7
20260507125939 -2 257 4.8 11.3 0.00 0.69 0.00 77 931.9
20260507124927 -2 271 3.2 11.3 0.00 0.69 0.00 77 932.0
20260507123931 -3 243 3.2 14.5 0.00 0.69 0.00 77 932.0
20260507122932 -3 278 4.8 11.3 0.00 0.69 0.00 77 932.2
20260507121935 -3 254 3.2 16.1 0.00 0.69 0.00 77 932.3
20260507120937 -3 271 1.6 11.3 0.00 0.69 0.00 77 932.5
20260507115944 -3 43 1.6 14.5 0.00 0.69 0.00 77 932.6